Find Starlink 31335

NORAD ID: 58969 Int'l Des: 2024-031 Owner: SPXS Country: US Constellation: starlink operational
LEOCIRCULAR

Live Position

Loading 3D Globe...

About Starlink 31335

Description loading...

Upcoming Passes

Passes for default location (London). Set your location on the main map for personalized predictions.

Altitude History

Loading altitude history...

Two-Line Element Set

1 58969U 24031E 26125.00477034 .00001014 00000-0 46354-4 0 9990
2 58969 53.1629 32.3978 0001366 83.5846 276.5310 15.30192403125197
Epoch: May 5, 2026 • Age: 13 hours

Current Status

Altitude 475.3 km
Velocity 7.63 km/s
Sub-Earth Point 9.16°N, 138.68°E
Launch Date Feb 15, 2024
Age 2.2 years
Type internet

Technical Details

Classification Payload
Mass 730.00 kg
Dry Mass 700.00 kg
Total Mass 730.00 kg
Length 0.30 m
Diameter 4.10 m
Span 29.00 m
Shape Box + pan
Manufacturer SPXS
Bus Type Starlink V2M
Phase Status In Orbit
Owner/State SPXS/US

Most Searched